Regional Weather Roundup
Issued by NWS

Home | Current Version | Previous Version | Text Only | Print | Product List | Glossary On
Versions: 1 2 3 4 5 6 7 8 9 10 11 12 13 14 15 16 17 18 19 20 21 22 23 24 25 26 27 28 29 30 31 32 33 34 35 36 37 38 39 40 41 42 43 44 45 46 47 48 49 50
000
ASUS46 KSEW 301510
RWRWA

WASHINGTON REGIONAL WEATHER ROUNDUP
NATIONAL WEATHER SERVICE SEATTLE WA
800 AM PDT TUE JUN 30 2015

NOTE:"FAIR" INDICATES FEW OR NO CLOUDS BELOW 12,000 FEET WITH NO
SIGNIFICANT WEATHER AND/OR OBSTRUCTIONS TO VISIBILITY.

WAZ505-507>509-301600-
SEATTLE, TACOMA, EVERETT, AND VICINITY

CITY           SKY/WX    TMP DP  RH WIND       PRES   REMARKS
EVERETT        SUNNY     64  58  80 CALM      30.13R
BOEING FIELD   CLOUDY    65  57  75 VRB3      30.12S
RENTON         CLOUDY    62  58  86 S5        30.12R
SEATAC AIRPORT FOG       60  57  89 S6        30.13S VSB 1/2
JBLM-MCCHORD   CLOUDY    61  59  94 S1        30.13R
PUYALLUP       CLOUDY    59  59 100 CALM      30.13S
BREMERTON      CLOUDY    57  55  94 S5        30.15S VSB 1/2
JBLM-FT LEWIS  CLOUDY    60  59  97 VRB2      30.12S
TACOMA NARROWS CLOUDY    60  57  89 SW5       30.14R FOG
$$

WAZ001-503-506-510-514-515-301600-
NORTH INTERIOR

CITY           SKY/WX    TMP DP  RH WIND       PRES   REMARKS
BELLINGHAM     SUNNY     64  57  78 S14       30.10R
FRIDAY HARBOR  SUNNY     59  54  83 E7        30.12R
EASTSOUND      SUNNY     59  55  88 CALM      30.08S
PORT ANGELES   CLOUDY    57  55  93 W5        30.12R FOG
PORT TOWNSEND  FAIR      63  57  82 E5        30.11S
NAS WHIDBEY    CLOUDY    58  55  90 W7        30.16S FOG
ARLINGTON      SUNNY     64  54  68 CALM      30.12F
BURLINGTON     SUNNY     63  57  82 CALM      30.11F
$$

WAZ020-022-039-040-504-511-512-301600-
SOUTHWEST INTERIOR

CITY           SKY/WX    TMP DP  RH WIND       PRES   REMARKS
SHELTON        CLOUDY    58  55  90 W8        30.11R
OLYMPIA        CLOUDY    60  56  86 W5        30.13R
CHEHALIS       CLOUDY    63  59  88 W3        30.13S
KELSO          CLOUDY    63  55  77 NW6       30.16R
VANCOUVER      CLOUDY    64  57  78 VRB6      30.10S
SCAPPOOSE, OR  SUNNY     64  57  78 NE6       30.10S
PORTLAND, OR   PTSUNNY   63  58  83 N5        30.11S
$$

WAZ021-516-517-301600-
WASHINGTON COAST

CITY           SKY/WX    TMP DP  RH WIND       PRES   REMARKS
FORKS          CLOUDY    57  57 100 CALM      30.13S FOG
HOQUIAM        CLOUDY    58  56  93 W5        30.14S
ASTORIA, OR    CLOUDY    59  58  96 W5        30.14R
$$

WAZ019-023-024-040-518-519-301600-
CASCADE MOUNTAINS AND COLUMBIA GORGE

CITY           SKY/WX    TMP DP  RH WIND       PRES   REMARKS
TROUTDALE, OR  CLOUDY    64  58  80 CALM      30.09S
THE DALLES, OR SUNNY     74  59  59 NW10G18   30.01F
$$

WAZ026-027-041>044-520-521-301600-
EAST SLOPES

CITY           SKY/WX    TMP DP  RH WIND       PRES   REMARKS
OMAK           SUNNY     76  59  55 N10       30.04F
WENATCHEE      LGT RAIN  80  54  40 NW9       30.03S
ELLENSBURG     SUNNY     79  54  41 NW13      30.06S
YAKIMA         SUNNY     81  54  39 NW14G21   30.03F
$$

WAZ028-034-035-301600-
COLUMBIA BASIN

CITY           SKY/WX    TMP DP  RH WIND       PRES   REMARKS
EPHRATA        SUNNY     83  53  35 N14       30.01S
MOSES LAKE     SUNNY     82  55  39 N7        30.02R
PASCO          SUNNY     81  58  45 CALM      29.99S
HERMISTON, OR  SUNNY     79  57  46 W6        30.01R
$$

WAZ036>038-301600-
NORTHEAST WASHINGTON

CITY           SKY/WX    TMP DP  RH WIND       PRES   REMARKS
SPOKANE GEIGER SUNNY     75  56  51 NE6       30.05R
SPOKANE FELTS  SUNNY     76  58  53 CALM      30.04S
FAIRCHILD AFB  SUNNY     75  55  50 NW7       30.05S
COEURDALENE,ID SUNNY     72  61  68 N8        30.04S
DEER PARK      SUNNY     73  58  59 NE5       30.05S
$$

WAZ029>033-301600-
SOUTHEAST WASHINGTON

CITY           SKY/WX    TMP DP  RH WIND       PRES   REMARKS
PULLMAN        SUNNY     74  55  51 W9        30.08R
LEWISTON, ID   SUNNY     81  59  47 CALM      29.99S
WALLA WALLA    MOSUNNY   82  57  42 SW12      30.02S
PENDLETON, OR  SUNNY     77  54  44 CALM      30.04S
$$


USA.gov is the U.S. government's official web portal to all federal, state and local government web resources and services.